Weather in Varnek

Russia / Nenets Autonomous Okrug     69°42′47″N   60°03′15″E
temp.,
°C
wind,
m/s
gust,
m/s
humid.,
%
clouds,
%
prec.,
mm/h
press.,
hPa
HPBL,
m
1 march, mon
mon100:00−19s61098100 0.1 1006216
03:00−18s71296100 0.1 1004265
06:00−17s81396100 0.1 1000299
09:00−14s101594100 0.5 997402
12:00−13s111793100 0.6 993514
15:00−11s111692100 0.9 990587
18:00−11sse101594100 0.5 987576
21:00−10sse91494100 1.4 985575
2 march, tue
tue200:00−10sse81393100 0.7 984604
03:00−11ese61094100 1.3 984422
06:00−15e5893100 0.1 984184
09:00−14ene5894100 0.1 985160
12:00−13ne4694100 0.0 986131
15:00−12ne469599 0.0 988134
18:00−13nne469799 0.0 98990
21:00−13nne469699 0.1 990123
3 march, wed
wed300:00−12ne3595100 0.3 99089
03:00−11ese4696100 0.6 992102
06:00−11e4595100 0.3 991136
09:00−11e4695100 0.7 993270
12:00−13ene689499 0.3 993317
15:00−15ene7119299 0.4 995455
18:00−16ene71293100 0.1 995447
21:00−17ene81294100 0.1 996366
4 march, thu
thu400:00−18ene81295100 0.0 996323
03:00−18ne71294100 0.1 997379
06:00−18ne71294100 0.1 997411
09:00−17ne81192100 0.1 997592
12:00−17ne71192100 0.1 997571
15:00−17ne71193100 0.2 997523
18:00−17ne71193100 0.1 997489
21:00−17ne71193100 0.3 997481
5 march, fri
fri500:00−18ne71194100 0.1 997432
03:00−18ne71194100 0.3 997453
06:00−18ne71194100 0.1 997460
09:00−18ne81194100 0.3 998487
12:00−17ne71193100 0.1 999491
15:00−17ne71193100 0.3 999444
18:00−18ne61094100 0.1 1000386
21:00−18ne61094100 0.2 1000370